| time (UTC) | temp F | wind direction | speed MPH | gust MPH | rain 1hr in | rain 24hr in | rain mn in | humidity % | barometer mb |
| 20260905114515 | 59 | 16 | 2.0 | 5.0 | 0.00 | 0.00 | 0.00 | 93 | 1014.2 |
| 20260905113020 | 59 | 360 | 1.0 | 4.0 | 0.00 | 0.00 | 0.00 | 93 | 1014.0 |
| 20260905111529 | 59 | 28 | 0.0 | 3.0 | 0.00 | 0.00 | 0.00 | 93 | 1014.2 |
| 20260905110008 | 59 | 35 | 0.0 | 3.0 | 0.00 | 0.00 | 0.00 | 93 | 1014.0 |
| 20260905104511 | 58 | 41 | 1.0 | 4.0 | 0.00 | 0.00 | 0.00 | 93 | 1013.6 |
| 20260905103019 | 59 | 24 | 0.0 | 3.0 | 0.00 | 0.00 | 0.00 | 93 | 1013.4 |
| 20260905101530 | 59 | 47 | 0.0 | 2.0 | 0.00 | 0.00 | 0.00 | 93 | 1013.4 |
| 20260905100036 | 59 | 39 | 0.0 | 1.0 | 0.00 | 0.00 | 0.00 | 93 | 1013.2 |
| 20260905094511 | 59 | 5 | 0.0 | 3.0 | 0.00 | 0.00 | 0.00 | 93 | 1013.0 |
| 20260905093019 | 58 | 5 | 0.0 | 0.0 | 0.00 | 0.00 | 0.00 | 92 | 1013.1 |
| 20260905091520 | 59 | 5 | 0.0 | 2.0 | 0.00 | 0.00 | 0.00 | 92 | 1013.1 |
| 20260905090028 | 60 | 28 | 0.0 | 2.0 | 0.00 | 0.00 | 0.00 | 91 | 1013.2 |
| 20260905084530 | 60 | 32 | 1.0 | 4.0 | 0.00 | 0.00 | 0.00 | 91 | 1013.2 |
| 20260905083012 | 60 | 23 | 0.0 | 4.0 | 0.00 | 0.00 | 0.00 | 91 | 1013.2 |
| 20260905081522 | 60 | 54 | 0.0 | 7.0 | 0.00 | 0.00 | 0.00 | 91 | 1013.2 |
| 20260905080032 | 61 | 360 | 0.0 | 4.0 | 0.00 | 0.00 | 0.00 | 90 | 1013.3 |
| 20260905074531 | 61 | 27 | 1.0 | 3.0 | 0.00 | 0.01 | 0.00 | 90 | 1013.2 |
| 20260905073034 | 61 | 9 | 1.0 | 4.0 | 0.00 | 0.02 | 0.00 | 89 | 1013.4 |
| 20260905071515 | 61 | 352 | 0.0 | 4.0 | 0.00 | 0.04 | 0.00 | 88 | 1013.4 |
| 20260905070007 | 62 | 42 | 1.0 | 4.0 | 0.00 | 0.05 | 0.00 | 87 | 1013.6 |
| 20260905064503 | 62 | 39 | 1.0 | 6.0 | 0.00 | 0.07 | 0.00 | 86 | 1013.7 |
| 20260905063007 | 63 | 330 | 1.0 | 5.0 | 0.00 | 0.09 | 0.00 | 85 | 1013.7 |
| 20260905061510 | 62 | 83 | 1.0 | 4.0 | 0.00 | 0.10 | 0.00 | 85 | 1013.9 |
| 20260905060019 | 62 | 46 | 1.0 | 6.0 | 0.00 | 0.12 | 0.00 | 84 | 1013.9 |
| 20260905054510 | 62 | 5 | 1.0 | 7.0 | 0.00 | 0.14 | 0.00 | 83 | 1014.0 |
| 20260905053005 | 62 | 346 | 0.0 | 5.0 | 0.00 | 0.16 | 0.00 | 83 | 1014.1 |
| 20260905051518 | 63 | 5 | 0.0 | 3.0 | 0.00 | 0.18 | 0.00 | 82 | 1014.1 |
| 20260905050012 | 63 | 30 | 1.0 | 4.0 | 0.00 | 0.21 | 0.00 | 82 | 1014.3 |
| 20260905044521 | 63 | 39 | 1.0 | 4.0 | 0.00 | 0.23 | 0.00 | 82 | 1014.4 |
| 20260905043004 | 63 | 59 | 0.0 | 3.0 | 0.00 | 0.25 | 0.00 | 81 | 1014.5 |
| 20260905041508 | 64 | 28 | 0.0 | 3.0 | 0.00 | 0.28 | 0.00 | 80 | 1014.5 |
| 20260905040018 | 64 | 18 | 0.0 | 4.0 | 0.00 | 0.30 | 0.00 | 80 | 1014.4 |
| 20260905034525 | 64 | 54 | 0.0 | 3.0 | 0.00 | 0.31 | 0.30 | 80 | 1014.4 |
| 20260905033026 | 64 | 110 | 0.0 | 1.0 | 0.00 | 0.32 | 0.30 | 81 | 1014.4 |
| 20260905031508 | 65 | 50 | 0.0 | 2.0 | 0.00 | 0.32 | 0.30 | 80 | 1014.4 |
| 20260905030009 | 65 | 9 | 0.0 | 2.0 | 0.00 | 0.32 | 0.30 | 78 | 1014.4 |
| 20260905024514 | 65 | 12 | 0.0 | 2.0 | 0.00 | 0.32 | 0.30 | 78 | 1014.4 |
| 20260905023028 | 66 | 5 | 0.0 | 1.0 | 0.00 | 0.32 | 0.30 | 77 | 1014.3 |
| 20260905021527 | 66 | 37 | 0.0 | 2.0 | 0.00 | 0.32 | 0.30 | 77 | 1014.4 |
| 20260905020012 | 66 | 9 | 0.0 | 2.0 | 0.00 | 0.32 | 0.30 | 77 | 1014.5 |
| 20260905014511 | 66 | 28 | 0.0 | 3.0 | 0.00 | 0.32 | 0.30 | 77 | 1014.7 |
| 20260905013018 | 67 | 352 | 0.0 | 3.0 | 0.00 | 0.32 | 0.30 | 77 | 1014.7 |
| 20260905011524 | 67 | 48 | 0.0 | 3.0 | 0.00 | 0.32 | 0.30 | 77 | 1014.7 |
| 20260905010026 | 67 | 66 | 0.0 | 5.0 | 0.00 | 0.32 | 0.30 | 77 | 1014.5 |
| 20260905004510 | 67 | 5 | 0.0 | 3.0 | 0.00 | 0.32 | 0.30 | 78 | 1014.5 |
| 20260905003014 | 67 | 5 | 0.0 | 3.0 | 0.00 | 0.32 | 0.30 | 78 | 1014.3 |
| 20260905001518 | 68 | 347 | 0.0 | 3.0 | 0.00 | 0.32 | 0.30 | 78 | 1014.3 |
| 20260905000028 | 68 | 352 | 0.0 | 1.0 | 0.00 | 0.32 | 0.30 | 79 | 1014.0 |
| 20260904234540 | 68 | 32 | 0.0 | 0.0 | 0.00 | 0.32 | 0.30 | 78 | 1014.1 |
| 20260904233010 | 68 | 24 | 0.0 | 1.0 | 0.00 | 0.32 | 0.30 | 78 | 1013.9 |
| 20260904231514 | 68 | 38 | 0.0 | 1.0 | 0.00 | 0.32 | 0.30 | 78 | 1014.0 |
| 20260904230027 | 69 | 17 | 0.0 | 1.0 | 0.00 | 0.32 | 0.30 | 75 | 1013.9 |
| 20260904224534 | 70 | 35 | 0.0 | 2.0 | 0.00 | 0.32 | 0.30 | 73 | 1014.0 |
| 20260904223029 | 70 | 5 | 1.0 | 4.0 | 0.00 | 0.32 | 0.30 | 73 | 1014.0 |
| 20260904221512 | 71 | 18 | 0.0 | 3.0 | 0.00 | 0.32 | 0.30 | 71 | 1013.9 |
| 20260904220004 | 72 | 15 | 0.0 | 3.0 | 0.00 | 0.32 | 0.30 | 67 | 1013.8 |
| 20260904214507 | 73 | 348 | 0.0 | 7.0 | 0.00 | 0.32 | 0.30 | 66 | 1013.8 |
| 20260904213006 | 74 | 360 | 1.0 | 4.0 | 0.00 | 0.32 | 0.30 | 64 | 1013.8 |
| 20260904211517 | 74 | 26 | 0.0 | 3.0 | 0.00 | 0.32 | 0.30 | 63 | 1013.9 |
| 20260904210022 | 74 | 28 | 1.0 | 12.0 | 0.00 | 0.32 | 0.30 | 61 | 1014.0 |
| 20260904204504 | 74 | 37 | 0.0 | 8.0 | 0.00 | 0.32 | 0.30 | 66 | 1014.0 |
| 20260904203010 | 75 | 9 | 1.0 | 8.0 | 0.00 | 0.32 | 0.30 | 62 | 1014.2 |
| 20260904201510 | 75 | 124 | 2.0 | 9.0 | 0.00 | 0.32 | 0.30 | 61 | 1014.3 |
| 20260904200016 | 74 | 47 | 1.0 | 9.0 | 0.00 | 0.32 | 0.30 | 62 | 1014.5 |
| 20260904194521 | 74 | 9 | 1.0 | 9.0 | 0.00 | 0.32 | 0.30 | 65 | 1014.5 |
| 20260904193008 | 75 | 292 | 1.0 | 10.0 | 0.00 | 0.32 | 0.30 | 62 | 1014.7 |
| 20260904191505 | 76 | 309 | 0.0 | 6.0 | 0.00 | 0.32 | 0.30 | 65 | 1014.7 |
| 20260904190014 | 74 | 313 | 1.0 | 8.0 | 0.00 | 0.32 | 0.30 | 65 | 1014.8 |
| 20260904184518 | 74 | 307 | 2.0 | 6.0 | 0.00 | 0.32 | 0.30 | 65 | 1014.7 |
| 20260904183024 | 75 | 268 | 0.0 | 3.0 | 0.00 | 0.32 | 0.30 | 66 | 1014.9 |
| 20260904181505 | 74 | 299 | 0.0 | 5.0 | 0.00 | 0.32 | 0.30 | 69 | 1015.1 |
| 20260904180009 | 74 | 44 | 1.0 | 8.0 | 0.00 | 0.32 | 0.30 | 68 | 1015.3 |
| 20260904174514 | 73 | 301 | 1.0 | 8.0 | 0.00 | 0.32 | 0.30 | 68 | 1015.5 |
| 20260904173031 | 75 | 343 | 2.0 | 5.0 | 0.00 | 0.32 | 0.30 | 65 | 1015.4 |
| 20260904171530 | 72 | 300 | 0.0 | 3.0 | 0.00 | 0.32 | 0.30 | 71 | 1015.5 |
| 20260904170007 | 73 | 290 | 0.0 | 6.0 | 0.00 | 0.32 | 0.30 | 68 | 1015.7 |
| 20260904164511 | 72 | 5 | 2.0 | 8.0 | 0.00 | 0.32 | 0.30 | 70 | 1015.5 |
| 20260904163015 | 72 | 333 | 1.0 | 4.0 | 0.00 | 0.32 | 0.30 | 71 | 1015.5 |
| 20260904161525 | 72 | 294 | 0.0 | 5.0 | 0.00 | 0.32 | 0.30 | 74 | 1015.8 |
| 20260904160043 | 72 | 288 | 0.0 | 6.0 | 0.00 | 0.32 | 0.30 | 74 | 1015.8 |
| 20260904154508 | 71 | 13 | 0.0 | 5.0 | 0.00 | 0.32 | 0.30 | 78 | 1015.7 |
| 20260904153016 | 71 | 343 | 0.0 | 5.0 | 0.00 | 0.32 | 0.30 | 79 | 1015.7 |
| 20260904151526 | 71 | 11 | 3.0 | 7.0 | 0.00 | 0.32 | 0.30 | 77 | 1015.8 |
| 20260904150040 | 70 | 15 | 2.0 | 7.0 | 0.00 | 0.32 | 0.30 | 81 | 1015.7 |
| 20260904144531 | 69 | 50 | 1.0 | 5.0 | 0.00 | 0.32 | 0.30 | 82 | 1015.8 |
| 20260904143009 | 69 | 308 | 0.0 | 8.0 | 0.00 | 0.32 | 0.30 | 83 | 1015.8 |
| 20260904141523 | 68 | 50 | 1.0 | 4.0 | 0.00 | 0.32 | 0.30 | 83 | 1015.9 |
| 20260904140028 | 68 | 317 | 0.0 | 7.0 | 0.00 | 0.32 | 0.30 | 84 | 1015.9 |
| 20260904134529 | 67 | 82 | 0.0 | 5.0 | 0.00 | 0.32 | 0.30 | 86 | 1015.7 |
| 20260904133030 | 66 | 5 | 0.0 | 8.0 | 0.00 | 0.32 | 0.30 | 89 | 1015.6 |